Tracking 22124 objects as of 24-Jan-2021
HD Live streaming from Space Station
objects crossing your sky now

BREEZE-M R/B

Track BREEZE-M R/B now!


NORAD ID: 28925
Int'l Code: 2005-052B
Perigee: 6,207.8 km
Apogee: 35,333.8 km
Inclination: 18.1 °
Period: 741.7 minutes
Semi major axis: 27141 km
RCS: 0.6439 m2 (medium)
Launch date: December 29, 2005
Source: Commonwealth of Independent States (former USSR) (CIS)
Launch site: TYURATAM MISSILE AND SPACE COMPLEX (TTMTR)

Note: This is a ROCKET BODY
aabbcc
Your satellite tracking list
Your tracking list is empty




NASA's NSSDC Master Catalog

Two Line Element Set (TLE):
1 28925U 05052B   21023.59491194  .00000021  00000-0  00000-0 0  9991
2 28925  18.0517 195.9918 5365514 136.2432 297.4663  1.94152952106813
Source of the keplerian elements: AFSPC